Change the Weather History Date:

Wednesday, January 1, 2014

  Actual Average Record
Temperature  
Mean Temperature 24 °F 20 °F  
Max Temperature 37 °F 33 °F 47 °F (2012)
Min Temperature 10 °F 6 °F -21 °F (2015)
Degree Days  
Heating Degree Days 41 46  
Month to date heating degree days 41 46  
Since 1 July heating degree days 3470 3335  
Cooling Degree Days 0 0  
Month to date cooling degree days 0 0  
Year to date cooling degree days 0 0  
Moisture  
Dew Point 20 °F    
Average Humidity 65    
Maximum Humidity 92    
Minimum Humidity 38    
Precipitation  
Precipitation 0.05 in 0.04 in 0.26 in (2003)
Month to date precipitation 0.05 0.04  
Year to date precipitation 0.05 0.04  
Sea Level Pressure  
Sea Level Pressure 30.25 in    
Wind  
Wind Speed 5 mph (WNW)    
Max Wind Speed 22 mph    
Max Gust Speed 26 mph    
Visibility 8 miles    
Events Fog , Snow    
T = Trace of Precipitation, MM = Missing Value Source: NWS Daily Summary

Daily Weather History Graph

Daily Weather History Graph

Search for Another Location

Airport or City:

Trip Planner

Search our weather history database for the weather conditions in past years. The results will help you decide how hot, cold, wet, or windy it might be!

Date:

Astronomy

Jan. 01, 2014 Rise Set
Actual Time 7:33 AM MST 4:57 PM MST
Civil Twilight 7:03 AM MST 5:27 PM MST
Nautical Twilight 6:29 AM MST 6:01 PM MST
Astronomical Twilight 5:56 AM MST 6:34 PM MST
Moon 7:26 AM MST (1/1) 5:45 PM MST (1/1)
Length of Visible Light 10h 24m
Length of Day
9h 23m
New Moon, 0% of the Moon is Illuminated
Jan 1
New Moon
Jan 7
First Quarter
Jan 15
Full
Jan 23
Last Quarter
Jan 30
New

Hourly Weather History & Observations

Time (MST) Temp. Windchill Dew Point Humidity Pressure Visibility Wind Dir Wind Speed Gust Speed Precip Events Conditions
12:53 AM 34.0 °F 27.2 °F 21.0 °F 59% 30.05 in 10.0 mi WSW 8.1 mph - N/A   Overcast
1:53 AM 35.1 °F 26.9 °F 21.0 °F 57% 30.04 in 10.0 mi SW 11.5 mph - N/A   Overcast
2:02 AM 35.1 °F 24.1 °F 23.0 °F 61% 30.09 in 5.0 mi West 19.6 mph 26.5 mph 0.00 in Snow Light Snow
2:08 AM 33.1 °F 23.9 °F 25.0 °F 72% 30.10 in 1.8 mi WNW 12.7 mph 26.5 mph 0.00 in Snow Light Snow
2:14 AM 30.9 °F 21.7 °F 26.1 °F 82% 30.10 in 0.8 mi WNW 11.5 mph - 0.00 in Snow Light Snow
2:21 AM 30.0 °F 22.4 °F 28.0 °F 92% 30.11 in 0.5 mi NW 8.1 mph - 0.01 in Fog , Snow Snow
2:29 AM 30.0 °F 24.1 °F 28.9 °F 96% 30.11 in 0.5 mi WNW 5.8 mph - 0.03 in Fog , Snow Snow
2:46 AM 30.0 °F 23.2 °F 28.9 °F 96% 30.12 in 1.2 mi West 6.9 mph - 0.05 in Snow Light Snow
2:53 AM 30.0 °F 25.2 °F 28.9 °F 96% 30.12 in 1.0 mi West 4.6 mph - 0.05 in Snow Light Snow
2:59 AM 30.0 °F 25.2 °F 28.9 °F 96% 30.13 in 1.5 mi WSW 4.6 mph - 0.00 in Snow Light Snow
3:08 AM 30.0 °F 21.7 °F 28.9 °F 96% 30.13 in 2.5 mi WSW 9.2 mph - 0.00 in Snow Light Snow
3:11 AM 28.9 °F 20.4 °F 28.0 °F 96% 30.13 in 3.0 mi SW 9.2 mph - 0.00 in Snow Light Snow
3:53 AM 28.0 °F 19.3 °F 27.0 °F 96% 30.15 in 5.0 mi WSW 9.2 mph - 0.00 in Snow Light Snow
4:13 AM 27.0 °F 17.3 °F 26.1 °F 96% 30.13 in 10.0 mi West 10.4 mph - 0.00 in   Mostly Cloudy
4:53 AM 25.0 °F 20.7 °F 24.1 °F 96% 30.18 in 10.0 mi WSW 3.5 mph - 0.00 in   Mostly Cloudy
5:30 AM 27.0 °F 23.0 °F 24.1 °F 89% 30.16 in 10.0 mi East 3.5 mph - N/A   Overcast
5:53 AM 24.1 °F - 21.9 °F 91% 30.22 in 10.0 mi Calm Calm - N/A   Mostly Cloudy
6:12 AM 21.9 °F - 19.0 °F 89% 30.18 in 10.0 mi Calm Calm - N/A   Scattered Clouds
6:53 AM 17.1 °F 10.0 °F 16.0 °F 96% 30.29 in 10.0 mi NNE 4.6 mph - N/A   Partly Cloudy
7:53 AM 15.1 °F - 12.0 °F 88% 30.33 in 10.0 mi Calm Calm - N/A   Mostly Cloudy
8:53 AM 19.0 °F - 17.1 °F 92% 30.34 in 10.0 mi Calm Calm - N/A   Scattered Clouds
9:53 AM 21.0 °F - 19.9 °F 96% 30.34 in 10.0 mi Calm Calm - N/A   Mostly Cloudy
10:53 AM 26.1 °F 20.5 °F 23.0 °F 88% 30.32 in 10.0 mi SSW 4.6 mph - N/A   Partly Cloudy
11:53 AM 30.9 °F - 25.0 °F 79% 30.28 in 10.0 mi Calm Calm - N/A   Mostly Cloudy
12:53 PM 35.1 °F 28.6 °F 21.9 °F 59% 30.24 in 10.0 mi WSW 8.1 mph - N/A   Partly Cloudy
1:53 PM 36.0 °F 31.1 °F 18.0 °F 48% 30.23 in 10.0 mi Variable 5.8 mph - N/A   Mostly Cloudy
2:53 PM 35.1 °F 26.9 °F 14.0 °F 42% 30.28 in 10.0 mi NW 11.5 mph - N/A   Clear
3:53 PM 35.1 °F 27.4 °F 12.9 °F 40% 30.31 in 10.0 mi WNW 10.4 mph - N/A   Clear
4:53 PM 30.9 °F 23.5 °F 12.9 °F 47% 30.35 in 10.0 mi NNW 8.1 mph - N/A   Clear
5:53 PM 24.1 °F 15.2 °F 14.0 °F 65% 30.41 in 10.0 mi ESE 8.1 mph - N/A   Clear
6:53 PM 19.0 °F 12.3 °F 12.0 °F 74% 30.47 in 10.0 mi Variable 4.6 mph - N/A   Clear
7:53 PM 16.0 °F 7.4 °F 10.9 °F 81% 30.51 in 10.0 mi ENE 5.8 mph - N/A   Clear
8:53 PM 15.1 °F 7.7 °F 10.0 °F 80% 30.51 in 10.0 mi NE 4.6 mph - N/A   Clear
9:53 PM 12.9 °F 5.2 °F 9.0 °F 84% 30.52 in 10.0 mi NE 4.6 mph - N/A   Clear
10:53 PM 12.0 °F 0.5 °F 7.0 °F 80% 30.51 in 10.0 mi NE 8.1 mph - N/A   Clear
11:53 PM 10.9 °F 2.9 °F 6.1 °F 81% 30.50 in 10.0 mi ENE 4.6 mph - N/A   Clear